Precipitable_Water
0.42 0.43 0.45 0.47 0.49 0.55 0.57 0.58 0.59 0.60 0.60 0.58 0.60 0.57 0.54 0.57 0.53 0.56 0.52 0.54 0.56 0.56 0.64 0.69 0.72 0.77 0.88 0.98 1.15 1.29 1.20 1.26
0.41 0.43 0.44 0.44 0.47 0.50 0.49 0.47 0.49 0.48 0.45 0.41 0.39 0.38 0.42 0.48 0.46 0.49 0.46 0.49 0.50 0.47 0.50 0.54 0.64 0.68 0.73 0.81 0.89 1.02 1.23 1.22
0.36 0.38 0.38 0.38 0.39 0.40 0.42 0.44 0.43 0.42 0.43 0.42 0.42 0.40 0.41 0.43 0.43 0.45 0.46 0.48 0.50 0.50 0.53 0.50 0.55 0.59 0.68 0.72 0.74 0.81 0.97 1.31
0.30 0.29 0.31 0.35 0.39 0.40 0.44 0.45 0.46 0.47 0.47 0.43 0.41 0.41 0.38 0.37 0.38 0.40 0.43 0.48 0.49 0.50 0.50 0.51 0.55 0.59 0.61 0.67 0.71 0.71 0.74 0.99
0.29 0.28 0.31 0.39 0.42 0.46 0.47 0.48 0.48 0.49 0.49 0.44 0.42 0.38 0.34 0.38 0.39 0.41 0.43 0.47 0.48 0.49 0.49 0.52 0.55 0.59 0.64 0.66 0.72 0.69 0.74 0.74
0.31 0.31 0.34 0.44 0.47 0.46 0.47 0.50 0.50 0.51 0.51 0.49 0.45 0.42 0.44 0.45 0.42 0.42 0.44 0.44 0.49 0.49 0.50 0.52 0.56 0.59 0.65 0.68 0.70 0.71 0.72 0.72
0.34 0.36 0.39 0.43 0.47 0.47 0.48 0.50 0.52 0.54 0.52 0.50 0.47 0.45 0.44 0.41 0.39 0.39 0.42 0.43 0.46 0.50 0.51 0.54 0.56 0.60 0.60 0.68 0.69 0.69 0.70 0.74
0.32 0.29 0.33 0.38 0.42 0.47 0.51 0.53 0.52 0.53 0.51 0.49 0.48 0.47 0.46 0.41 0.39 0.37 0.38 0.40 0.44 0.48 0.51 0.54 0.55 0.61 0.63 0.67 0.66 0.66 0.67 0.69
0.30 0.29 0.31 0.39 0.43 0.43 0.46 0.48 0.48 0.50 0.51 0.52 0.52 0.49 0.43 0.39 0.38 0.40 0.41 0.43 0.46 0.50 0.54 0.56 0.57 0.59 0.64 0.65 0.68 0.64 0.64 0.66
0.31 0.32 0.37 0.43 0.47 0.50 0.53 0.54 0.54 0.55 0.54 0.53 0.50 0.44 0.40 0.38 0.40 0.42 0.44 0.47 0.50 0.52 0.55 0.56 0.56 0.58 0.63 0.66 0.66 0.66 0.63 0.63
0.33 0.33 0.42 0.48 0.54 0.56 0.56 0.56 0.55 0.55 0.54 0.53 0.47 0.42 0.40 0.40 0.41 0.42 0.45 0.48 0.49 0.52 0.53 0.54 0.56 0.57 0.60 0.61 0.63 0.64 0.62 0.61
0.27 0.29 0.35 0.44 0.47 0.50 0.52 0.53 0.52 0.55 0.54 0.49 0.44 0.41 0.41 0.39 0.40 0.44 0.46 0.46 0.48 0.49 0.50 0.52 0.53 0.53 0.56 0.57 0.58 0.58 0.59 0.60
0.28 0.29 0.30 0.33 0.37 0.47 0.50 0.51 0.49 0.51 0.48 0.45 0.42 0.39 0.38 0.38 0.38 0.43 0.46 0.44 0.46 0.48 0.49 0.50 0.50 0.51 0.54 0.54 0.53 0.54 0.55 0.54
0.30 0.32 0.32 0.36 0.42 0.47 0.48 0.49 0.49 0.49 0.46 0.42 0.39 0.37 0.36 0.35 0.37 0.39 0.40 0.41 0.44 0.45 0.46 0.46 0.48 0.50 0.49 0.49 0.51 0.53 0.53 0.52
0.32 0.33 0.34 0.40 0.45 0.46 0.46 0.48 0.48 0.46 0.42 0.39 0.38 0.37 0.39 0.37 0.34 0.32 0.30 0.33 0.40 0.42 0.43 0.41 0.42 0.45 0.45 0.44 0.44 0.45 0.47 0.49
0.31 0.34 0.37 0.41 0.43 0.44 0.45 0.45 0.45 0.43 0.40 0.38 0.37 0.38 0.36 0.36 0.31 0.31 0.29 0.30 0.31 0.34 0.37 0.38 0.41 0.39 0.40 0.40 0.40 0.40 0.39 0.41
0.34 0.36 0.39 0.40 0.39 0.40 0.41 0.40 0.39 0.39 0.38 0.36 0.36 0.36 0.36 0.37 0.35 0.31 0.28 0.27 0.26 0.26 0.29 0.33 0.33 0.34 0.35 0.36 0.37 0.37 0.37 0.35
0.33 0.35 0.37 0.38 0.38 0.39 0.37 0.38 0.39 0.37 0.34 0.33 0.33 0.35 0.34 0.31 0.27 0.24 0.23 0.23 0.24 0.23 0.24 0.24 0.27 0.31 0.32 0.30 0.30 0.29 0.31 0.34
0.33 0.35 0.36 0.37 0.38 0.37 0.37 0.36 0.34 0.32 0.31 0.30 0.29 0.30 0.26 0.24 0.22 0.23 0.24 0.23 0.22 0.22 0.21 0.22 0.23 0.27 0.29 0.29 0.25 0.25 0.25 0.25
Wind_Speed
23 26 28 30 33 34 36 38 40 41 43 43 43 44 44 45 46 45 46 45 45 46 45 44 43 42 41 40 40 42 41 52
26 29 32 35 36 38 40 42 43 45 46 46 46 47 47 47 48 47 47 46 45 45 44 46 45 45 44 43 42 41 43 39
30 33 36 38 39 40 43 44 45 46 46 46 46 47 47 47 47 46 47 46 45 45 44 45 44 45 45 44 43 42 39 41
34 37 38 40 41 43 45 46 48 48 48 48 48 48 49 49 48 48 47 47 46 45 44 43 43 42 42 43 44 43 42 40
38 41 42 42 43 45 47 48 49 50 50 50 50 50 50 50 49 49 48 47 46 45 45 43 40 40 39 39 39 41 41 40
40 43 43 43 46 47 49 49 50 50 51 50 51 51 50 48 49 50 49 48 46 44 43 42 40 38 38 37 37 37 39 39
41 44 45 46 47 49 50 50 50 51 52 51 52 51 49 47 47 46 46 45 43 42 41 39 37 36 36 35 34 35 35 36
46 48 49 49 49 50 51 52 51 52 53 52 51 48 42 41 43 43 44 41 38 36 35 34 33 33 31 31 31 30 31 33
48 50 51 51 50 51 51 51 51 51 50 48 44 39 37 37 39 40 37 33 32 31 28 26 25 24 24 25 25 25 26 28
49 51 52 50 50 50 49 49 48 48 46 42 37 35 35 35 38 37 33 30 28 27 24 21 18 16 16 16 19 19 20 22
49 52 51 49 48 48 48 47 45 44 40 35 32 32 34 35 36 35 31 28 27 24 22 18 17 14 13 13 15 15 15 16
50 51 50 49 48 47 44 43 41 39 34 30 31 32 34 35 35 32 29 27 25 22 20 17 18 14 11 9 10 11 12 12
48 50 50 49 46 42 41 40 37 32 30 29 31 33 34 34 32 30 28 26 23 21 19 17 17 16 14 9 7 7 8 8
47 49 48 47 42 38 38 36 32 28 29 29 31 33 34 33 30 29 26 25 22 20 18 17 17 17 15 8 6 5 5 6
46 46 45 42 38 38 36 32 29 28 28 30 32 33 33 31 29 27 25 23 22 19 17 17 19 18 17 11 9 8 7 5
44 42 41 39 38 35 33 30 28 28 29 30 31 32 30 28 27 26 24 22 21 18 18 18 19 19 17 15 12 10 9 7
40 39 36 36 36 35 33 30 29 28 29 29 30 29 28 27 26 24 23 22 21 17 17 19 19 19 18 18 15 13 13 10
36 36 36 36 36 35 32 29 28 27 27 28 28 27 26 26 24 24 23 21 20 19 18 19 18 18 19 17 16 14 13 12
34 34 35 35 35 32 30 28 27 26 27 27 26 25 25 24 24 23 22 21 20 19 19 18 17 17 19 18 16 14 13 13
Wind_Direction
332 333 332 330 329 327 325 323 322 320 317 314 311 310 308 307 306 303 301 298 295 293 289 287 285 282 280 277 274 269 263 253
329 328 328 328 327 326 324 322 321 318 317 314 311 310 308 306 305 304 303 299 297 295 290 287 282 280 279 277 276 271 266 256
328 327 326 326 325 324 325 324 322 321 319 317 314 312 311 309 307 305 305 301 298 295 292 288 284 280 277 274 273 271 268 258
326 325 324 323 324 324 323 323 323 321 320 318 316 314 312 310 308 306 304 302 299 296 294 290 284 281 277 274 270 269 266 264
325 326 324 324 323 323 322 322 322 321 320 319 318 315 313 312 311 309 307 303 299 296 293 288 285 280 277 275 272 268 265 263
327 326 325 323 323 322 321 321 321 320 321 319 317 316 313 310 309 309 308 305 301 297 294 288 283 279 276 274 273 269 264 262
329 329 326 324 322 322 321 320 320 320 321 321 320 318 316 314 314 312 311 308 305 300 297 290 282 280 276 273 271 268 265 261
327 326 325 323 322 322 321 320 320 321 321 321 322 322 321 321 321 320 318 314 312 308 304 294 286 280 276 271 270 266 264 260
326 326 325 323 323 322 321 321 322 323 324 324 325 327 327 328 328 328 327 323 321 320 315 306 296 282 278 270 268 265 265 262
328 328 327 326 325 325 325 326 326 326 327 327 329 330 331 332 334 334 333 332 331 329 326 324 311 295 287 277 267 270 267 262
330 330 330 329 328 328 327 329 329 330 331 333 335 336 337 336 336 337 337 337 337 338 337 335 332 312 297 281 271 274 270 265
331 331 330 329 329 330 331 332 334 336 338 339 341 340 340 340 341 341 341 340 340 341 344 340 349 343 329 299 290 280 276 271
334 334 334 332 330 331 334 336 336 341 346 344 344 344 343 343 344 346 345 346 346 349 349 352 354 355 345 329 311 290 289 284
336 337 338 337 336 337 338 341 343 342 343 345 346 347 347 348 349 349 350 352 354 352 355 356 359 358 2 13 6 342 317 300
336 338 340 344 345 342 342 343 345 345 346 345 345 346 347 350 351 353 355 357 359 1 4 8 7 13 16 21 17 9 358 345
338 339 341 345 346 346 348 349 347 345 344 345 347 348 351 353 356 358 360 2 4 8 14 14 15 18 23 27 23 23 15 11
344 347 348 347 347 346 345 343 343 344 345 346 348 351 353 356 358 2 5 8 11 11 12 14 18 18 19 21 26 27 25 22
344 346 346 346 345 344 345 347 346 347 349 351 352 356 359 2 4 6 7 10 12 13 9 8 13 14 15 15 14 13 16 18
343 344 346 348 348 347 346 348 349 350 352 355 358 1 4 6 8 9 9 11 12 12 11 10 7 7 7 5 3 4 6 9